Location: ???????????
(55.5758°N, 38.4970°E)
Time: 18:23:49
(UTC+00:00)

Resurs 1-4 Rocket - Pass Details

Date: 15 November 2025
Orbit: 799 x 811 km, 98.8° (Epoch: 14 December)

Event Time Altitude Azimuth Distance (km) Brightness Sun altitude
Rises 02:25:41 0° 11° (NNE) 3,339 5.4 -21.5°
Reaches altitude 10° 02:28:50 10° 352° (N) 2,406 4.5 -21.0°
Enters shadow 02:30:21 14° 336° (NNW) 2,109 4.0 -20.8°
